KA6AKH-13 Weather Reports


time (UTC)temp
C
wind
direction
speed
KPH
gust
KPH
rain 1hr
cm
rain 24hr
cm
rain mn
cm
humidity
%
barometer
mb
20260504140425 16 219 0.0 0.0 0.00 0.00 0.00 50 1014.3
20260504130325 13 322 1.6 1.6 0.00 0.00 0.00 57 1015.0
20260504081525 11 263 0.0 0.0 0.00 0.00 0.00 69 1015.4
20260504045025 9 263 0.0 0.0 0.00 0.00 0.00 74 1015.5
20260504044025 8 263 0.0 0.0 0.00 0.00 0.00 74 1015.5
20260504042025 8 263 0.0 0.0 0.00 0.00 0.00 73 1015.4
20260504041025 8 263 0.0 0.0 0.00 0.00 0.00 72 1015.5
20260504034956 8 263 0.0 0.0 0.00 0.00 0.00 70 1015.6
20260504033925 9 263 0.0 0.0 0.00 0.00 0.00 69 1015.4
20260504032939 9 263 0.0 0.0 0.00 0.00 0.00 68 1015.4
20260504032855 9 263 0.0 0.0 0.00 0.00 0.00 68 1015.4
20260504031021 9 263 0.0 0.0 0.00 0.00 0.00 67 1015.3
20260504030825 9 263 0.0 0.0 0.00 0.00 0.00 67 1015.3
20260504025755 10 263 0.0 0.0 0.00 0.00 0.00 66 1015.3
20260504024921 10 263 0.0 0.0 0.00 0.00 0.00 65 1015.0
20260504024725 10 263 0.0 0.0 0.00 0.00 0.00 65 1015.1
20260504023655 10 263 0.0 0.0 0.00 0.00 0.00 65 1015.0
20260504022655 10 263 0.0 0.0 0.00 0.00 0.00 64 1015.0
20260504021625 10 263 0.0 0.0 0.00 0.00 0.00 64 1014.9
20260504020625 10 263 0.0 0.0 0.00 0.00 0.00 63 1015.0
20260504014555 11 263 0.0 0.0 0.00 0.00 0.00 59 1014.8
20260504013639 11 263 0.0 0.0 0.00 0.00 0.00 57 1014.7
20260504013525 11 263 0.0 0.0 0.00 0.00 0.00 57 1014.7
20260504012651 11 263 0.0 0.0 0.00 0.00 0.00 55 1014.7
20260504012455 11 263 0.0 0.0 0.00 0.00 0.00 55 1014.7
20260504011455 12 263 0.0 0.0 0.00 0.00 0.00 52 1014.7
20260504005455 13 263 0.0 0.0 0.00 0.00 0.00 48 1014.6
20260504004455 13 263 0.0 0.0 0.00 0.00 0.00 47 1014.5
20260504003455 13 263 0.0 0.0 0.00 0.00 0.00 45 1014.4
20260504002627 14 263 0.0 0.0 0.00 0.00 0.00 43 1014.3
20260504002425 14 263 0.0 0.0 0.00 0.00 0.00 43 1014.3
20260504001425 15 263 0.0 0.0 0.00 0.00 0.00 41 1014.3
20260503233325 16 263 0.0 0.0 0.00 0.00 0.00 35 1014.0
20260503225225 17 293 1.6 8.0 0.00 0.00 0.00 32 1013.9
20260503224225 18 268 0.0 0.0 0.00 0.00 0.00 32 1013.9
20260503215125 18 193 0.0 0.0 0.00 0.00 0.00 30 1014.0
20260503214055 18 12 1.6 4.8 0.00 0.00 0.00 30 1014.1
20260503212055 18 234 0.0 0.0 0.00 0.00 0.00 33 1014.2
20260503211054 18 254 0.0 9.7 0.00 0.00 0.00 33 1014.2
20260503210426 17 337 1.6 1.6 0.00 0.00 0.00 34 1014.1
20260503210025 17 337 1.6 1.6 0.00 0.00 0.00 34 1014.1
20260503205025 17 291 3.2 11.3 0.00 0.00 0.00 32 1014.3
20260503202925 17 231 0.0 4.8 0.00 0.00 0.00 33 1014.4
20260503194825 17 279 9.7 16.1 0.00 0.00 0.00 32 1014.9
20260503192724 18 311 3.2 9.7 0.00 0.00 0.00 33 1015.3
20260503190851 17 344 1.6 3.2 0.00 0.00 0.00 35 1015.6
20260503190625 17 344 1.6 3.2 0.00 0.00 0.00 35 1015.6
20260503185624 17 324 3.2 9.7 0.00 0.00 0.00 34 1015.8
20260503182525 16 219 0.0 0.0 0.00 0.00 0.00 36 1016.1
20260503180425 17 256 3.2 9.7 0.00 0.00 0.00 35 1016.3
20260503175425 17 272 3.2 11.3 0.00 0.00 0.00 37 1016.3
20260503171325 16 260 1.6 3.2 0.00 0.00 0.00 37 1016.7
20260503170255 15 356 1.6 8.0 0.00 0.00 0.00 38 1016.6
20260503160125 13 328 0.0 3.2 0.00 0.00 0.00 42 1017.4